ASL24 LYBE-LATI

Flight info

Callsign ASL24
Flight time N/A
Altitude 19000
Route VAL N732 MODRA N142 AKIKA/N0373F180 T8 INLOT
Aircraft A320/M-SDE3FGHIRWY/LB1

Departure

Time N/A
Airport Belgrade Nikola Tesla Airport (LYBE)

Arrival

Time 2026-04-27 20:25
Airport Tirana International Airport Mother Teresa (LATI)
Time Latitude Longitude Altitude Speed Heading
2026-04-27 20:01 42.73270 19.59757 19109 ft 419 kts 180°
2026-04-27 20:01 42.70356 19.59851 19115 ft 419 kts 180°
2026-04-27 20:01 42.67440 19.59943 19113 ft 419 kts 180°
2026-04-27 20:01 42.64527 19.60033 19112 ft 419 kts 180°
2026-04-27 20:02 42.61572 19.60124 19105 ft 419 kts 180°
2026-04-27 20:02 42.58657 19.60215 19104 ft 419 kts 180°
2026-04-27 20:02 42.55741 19.60306 19109 ft 419 kts 180°
2026-04-27 20:02 42.52833 19.60156 19099 ft 418 kts 188°
2026-04-27 20:03 42.49984 19.59459 19104 ft 416 kts 193°
2026-04-27 20:03 42.47139 19.58678 19100 ft 417 kts 193°
2026-04-27 20:03 42.44300 19.57894 19091 ft 417 kts 193°
2026-04-27 20:03 42.41456 19.57111 19083 ft 417 kts 193°
2026-04-27 20:04 42.38616 19.56331 19089 ft 417 kts 193°
2026-04-27 20:04 42.35774 19.55552 19082 ft 417 kts 193°
2026-04-27 20:04 42.32933 19.54777 19083 ft 417 kts 193°
2026-04-27 20:04 42.30088 19.54003 19080 ft 417 kts 193°
2026-04-27 20:05 42.27242 19.53232 19074 ft 417 kts 193°
2026-04-27 20:05 42.24395 19.52462 19077 ft 417 kts 193°
2026-04-27 20:05 42.21549 19.51690 19080 ft 417 kts 193°
2026-04-27 20:05 42.18705 19.50919 19075 ft 417 kts 193°
2026-04-27 20:06 42.15860 19.50149 19070 ft 417 kts 193°
2026-04-27 20:06 42.13014 19.49380 19070 ft 417 kts 193°
2026-04-27 20:06 42.10169 19.48609 19066 ft 417 kts 193°
2026-04-27 20:06 42.07322 19.47837 19064 ft 417 kts 193°
2026-04-27 20:07 42.04725 19.47134 19062 ft 417 kts 193°
2026-04-27 20:07 42.01882 19.46364 19061 ft 417 kts 193°
2026-04-27 20:07 41.99008 19.45770 19058 ft 419 kts 185°
2026-04-27 20:07 41.96092 19.45817 19055 ft 420 kts 175°
2026-04-27 20:08 41.93379 19.46399 19022 ft 407 kts 171°
2026-04-27 20:08 41.90640 19.47066 18867 ft 395 kts 171°
2026-04-27 20:08 41.87957 19.47710 18402 ft 390 kts 171°
2026-04-27 20:08 41.85238 19.48353 17233 ft 404 kts 171°
2026-04-27 20:09 41.82393 19.49019 16082 ft 416 kts 171°
2026-04-27 20:09 41.79533 19.49689 15324 ft 417 kts 171°
2026-04-27 20:09 41.76684 19.50360 14709 ft 413 kts 171°
2026-04-27 20:09 41.73869 19.51026 14139 ft 409 kts 170°
2026-04-27 20:10 41.71093 19.51682 13324 ft 399 kts 170°
2026-04-27 20:10 41.68391 19.52323 12085 ft 392 kts 170°
2026-04-27 20:10 41.65732 19.52954 10881 ft 384 kts 170°
2026-04-27 20:10 41.63129 19.53556 9706 ft 376 kts 171°
2026-04-27 20:11 41.60557 19.54023 8452 ft 369 kts 173°
2026-04-27 20:11 41.58027 19.54379 7238 ft 363 kts 174°
2026-04-27 20:11 41.55570 19.54677 6690 ft 341 kts 175°
2026-04-27 20:11 41.53287 19.54946 6407 ft 316 kts 175°
2026-04-27 20:12 41.51188 19.55195 6278 ft 290 kts 175°
2026-04-27 20:12 41.49884 19.55354 6100 ft 279 kts 174°
2026-04-27 20:12 41.47437 19.55668 5439 ft 272 kts 174°
2026-04-27 20:12 41.45561 19.55919 4866 ft 270 kts 174°
2026-04-27 20:13 41.43701 19.56169 4291 ft 269 kts 174°
2026-04-27 20:13 41.41836 19.56420 4032 ft 268 kts 174°
2026-04-27 20:13 41.40009 19.56669 3993 ft 257 kts 174°
2026-04-27 20:13 41.38279 19.56906 4008 ft 243 kts 174°
2026-04-27 20:14 41.36618 19.57129 4006 ft 238 kts 174°
2026-04-27 20:14 41.34973 19.57348 4004 ft 238 kts 174°
2026-04-27 20:14 41.33326 19.57568 4004 ft 238 kts 174°
2026-04-27 20:14 41.31682 19.57790 4005 ft 238 kts 174°
2026-04-27 20:15 41.30036 19.58011 4004 ft 238 kts 174°
2026-04-27 20:15 41.28391 19.58234 4000 ft 238 kts 174°
2026-04-27 20:15 41.26765 19.58455 3995 ft 229 kts 174°
2026-04-27 20:15 41.25240 19.58664 3987 ft 212 kts 174°
2026-04-27 20:16 41.23823 19.58858 3993 ft 197 kts 174°
2026-04-27 20:16 41.22458 19.59044 3998 ft 199 kts 174°
2026-04-27 20:16 41.21059 19.59234 3997 ft 200 kts 174°
2026-04-27 20:16 41.19726 19.59619 3996 ft 200 kts 155°
2026-04-27 20:17 41.18571 19.60665 3997 ft 200 kts 133°
2026-04-27 20:17 41.17816 19.62196 3995 ft 199 kts 110°
2026-04-27 20:17 41.17554 19.63990 3979 ft 197 kts 88°
2026-04-27 20:17 41.17631 19.65166 3994 ft 192 kts 84°
2026-04-27 20:18 41.17813 19.67500 4008 ft 185 kts 84°
2026-04-27 20:18 41.17940 19.69174 3975 ft 180 kts 84°
2026-04-27 20:18 41.18065 19.70818 3976 ft 179 kts 84°
2026-04-27 20:18 41.18288 19.72418 3983 ft 173 kts 68°
2026-04-27 20:19 41.18903 19.73660 3971 ft 155 kts 44°
2026-04-27 20:19 41.19786 19.74448 3978 ft 152 kts 22°
2026-04-27 20:19 41.20789 19.74736 3791 ft 146 kts
2026-04-27 20:19 41.21803 19.74609 3362 ft 147 kts 353°
2026-04-27 20:20 41.22822 19.74454 2986 ft 146 kts 353°
2026-04-27 20:20 41.23828 19.74301 2988 ft 148 kts 353°
2026-04-27 20:20 41.24852 19.74151 2985 ft 148 kts 353°
2026-04-27 20:20 41.25879 19.74009 2987 ft 149 kts 353°
2026-04-27 20:21 41.26909 19.73868 2923 ft 150 kts 353°
2026-04-27 20:21 41.27942 19.73724 2707 ft 148 kts 353°
2026-04-27 20:21 41.28964 19.73579 2465 ft 147 kts 353°
2026-04-27 20:21 41.29649 19.73483 2321 ft 146 kts 354°
2026-04-27 20:22 41.30658 19.73355 2140 ft 145 kts 355°
2026-04-27 20:22 41.31664 19.73243 1932 ft 146 kts 354°
2026-04-27 20:22 41.32695 19.73091 1738 ft 150 kts 353°
2026-04-27 20:22 41.33718 19.72941 1563 ft 147 kts 355°
2026-04-27 20:23 41.34737 19.72829 1341 ft 148 kts 355°
2026-04-27 20:23 41.35755 19.72690 1141 ft 147 kts 354°
2026-04-27 20:23 41.36773 19.72595 951 ft 145 kts 355°
2026-04-27 20:23 41.37767 19.72501 745 ft 141 kts 355°
2026-04-27 20:24 41.38739 19.72382 542 ft 140 kts 356°
2026-04-27 20:24 41.39709 19.72281 328 ft 140 kts 355°
2026-04-27 20:24 41.40670 19.72185 135 ft 130 kts 354°
2026-04-27 20:24 41.41308 19.72103 126 ft 60 kts 353°
2026-04-27 20:25 41.41657 19.72048 120 ft 34 kts 352°
2026-04-27 20:25 41.41861 19.71979 120 ft 21 kts 309°
2026-04-27 20:25 41.41869 19.71881 123 ft 0 kts 273°
2026-04-27 20:25 41.41869 19.71864 123 ft 7 kts 272°
2026-04-27 20:26 41.41869 19.71780 123 ft 7 kts 269°
2026-04-27 20:26 41.41868 19.71731 123 ft 5 kts 268°
2026-04-27 20:26 41.41866 19.71672 123 ft 8 kts 266°
2026-04-27 20:26 41.41879 19.71597 120 ft 9 kts 320°
2026-04-27 20:27 41.41950 19.71576 118 ft 12 kts 351°
2026-04-27 20:27 41.42044 19.71565 120 ft 15 kts 356°
2026-04-27 20:27 41.42162 19.71554 121 ft 19 kts 355°
2026-04-27 20:27 41.42231 19.71512 120 ft 3 kts 274°
2026-04-27 20:28 41.42226 19.71480 121 ft 0 kts 267°